Wind_Speed
38 36 34 35 34 35 31 31 31 29 26 27 30 30 28 27 26 25 23 19 22 18 18 15 9 9 12 9 12 7 8 8 9 12 13 13 16 16 15 16 17 21 23
38 36 37 35 35 34 36 31 32 33 28 29 32 31 31 29 30 29 26 19 22 21 19 14 13 12 14 13 12 11 12 14 14 14 16 19 19 17 13 14 21 22 22
37 37 36 37 37 37 36 37 33 34 34 34 33 34 31 32 33 32 28 24 23 23 21 18 17 15 15 13 13 14 14 13 12 13 16 17 21 17 17 19 20 15 18
38 37 38 39 39 39 36 36 35 35 33 33 33 34 32 32 33 32 26 24 24 22 20 18 16 18 18 17 16 16 17 17 16 16 20 20 23 17 16 12 17 14 16
39 39 39 39 37 35 34 34 35 33 35 33 34 32 30 30 29 29 25 24 24 22 21 20 19 19 19 16 17 20 17 17 17 21 19 20 17 11 14 18 18 19 20
39 39 38 37 36 36 34 33 33 33 32 31 32 31 32 31 30 31 26 24 24 24 23 20 21 19 20 21 18 17 20 22 22 22 20 15 17 16 14 14 14 16 15
34 37 38 37 37 36 33 33 31 33 29 30 30 28 28 27 29 29 26 23 22 23 22 21 20 18 18 19 16 18 18 22 20 20 18 19 18 20 14 15 15 17 19
34 33 35 35 34 34 32 32 31 28 29 27 24 24 24 25 26 22 20 25 21 18 22 22 21 20 18 18 17 18 24 24 21 19 20 23 22 19 17 17 22 24 25
32 29 33 32 31 31 30 30 26 25 23 21 23 24 25 22 26 22 20 20 22 23 21 19 18 20 20 19 18 23 24 22 19 19 22 23 21 20 21 22 24 17 17
30 32 28 27 30 29 27 23 21 20 20 20 20 22 25 24 24 22 20 17 20 22 22 25 24 23 20 18 19 19 13 13 12 15 10 10 16 24 22 25 31 19 18
25 26 26 28 26 25 23 22 21 20 17 18 17 18 21 24 23 24 21 21 21 20 15 15 20 20 15 16 14 11 10 13 13 13 17 19 22 24 20 14 10 15 17
25 25 24 25 23 22 22 19 21 19 15 14 14 14 17 19 21 23 18 18 19 16 9 7 11 12 16 14 11 12 13 13 14 14 17 19 16 12 12 15 21 22 22
26 25 23 21 18 21 20 22 20 16 15 14 14 14 15 16 13 14 17 22 22 16 10 10 9 11 9 9 9 9 9 9 11 16 16 12 16 16 18 19 17 18 19
24 25 24 23 22 22 18 18 19 16 14 12 13 15 12 8 12 15 14 14 14 14 12 8 7 7 8 7 10 12 11 10 13 13 16 15 13 14 18 16 17 18 23
20 22 22 23 21 19 16 15 14 14 15 15 11 10 12 13 17 13 15 14 15 14 10 9 11 10 12 15 14 13 13 13 16 14 9 11 13 16 15 17 17 22 21
20 19 18 19 20 18 22 21 15 15 11 10 10 9 11 12 16 12 11 10 10 9 11 14 13 14 16 19 17 16 17 17 17 6 5 11 15 14 16 16 18 19 19
22 24 21 19 17 19 19 17 14 13 9 8 9 9 9 12 13 12 11 10 9 8 4 7 12 12 7 10 9 10 11 3 2 5 8 10 11 15 14 15 18 17 17
24 23 23 21 22 17 18 19 19 17 12 9 12 12 12 14 14 12 11 8 5 7 9 10 12 5 2 2 0 3 6 6 8 10 9 11 15 12 13 16 16 17 19
17 13 12 17 20 20 14 15 17 19 19 16 14 14 14 14 13 12 11 7 6 8 12 8 1 3 4 5 4 3 3 5 7 10 10 11 10 12 14 17 16 19 22
10 19 14 14 14 11 10 9 7 18 22 18 16 15 17 14 9 7 6 4 5 5 4 6 5 3 3 3 4 4 5 6 9 8 7 9 10 11 15 15 17 20 19
7 5 8 21 15 13 9 9 10 19 19 19 18 22 21 20 15 13 12 12 9 5 4 3 3 3 2 4 5 4 6 8 7 3 5 9 11 12 14 13 18 18 17
15 12 9 11 17 14 11 8 5 14 19 18 15 23 16 15 14 17 17 13 14 9 2 2 1 5 3 2 3 4 5 6 5 2 4 8 10 13 11 15 16 17 15
10 14 11 12 14 14 5 7 14 18 15 14 17 22 23 15 10 13 17 12 9 10 8 4 3 3 4 3 3 4 4 5 3 4 4 7 10 11 12 15 15 14 16
17 17 13 12 7 5 8 8 6 9 13 11 16 18 19 17 11 9 14 12 11 10 9 7 6 4 2 3 3 5 6 7 3 0 5 4 11 11 12 14 13 14 16
11 12 7 4 8 7 9 3 8 9 5 10 14 15 15 10 7 8 9 12 13 14 13 12 10 7 9 7 4 6 6 7 7 9 7 6 8 12 9 10 13 15 14
6 8 9 10 6 4 4 6 8 12 12 9 14 12 13 13 15 15 17 18 18 17 16 15 15 12 9 8 9 11 8 9 9 7 6 5 6 11 7 10 12 14 12
Wind_Direction
193 195 198 203 204 205 209 210 212 211 216 192 188 190 195 202 206 206 211 215 193 193 193 212 228 235 263 260 290 310 304 279 257 280 294 305 298 299 287 292 285 277 282
194 196 199 202 203 205 209 209 208 207 208 208 197 197 196 200 206 209 212 214 192 197 198 192 221 228 239 245 269 285 293 294 291 286 285 288 287 289 274 289 295 288 280
195 197 200 202 204 207 207 208 208 207 205 207 201 200 200 199 205 209 212 218 213 209 207 193 212 225 237 239 243 254 266 277 286 286 279 281 278 283 285 287 296 283 280
197 199 203 203 206 207 207 207 208 207 203 205 204 205 203 202 205 208 208 220 218 213 211 202 208 223 229 233 242 263 266 272 274 277 282 277 280 276 289 305 310 294 294
196 200 204 206 207 207 207 208 207 208 205 206 204 208 206 201 200 201 209 217 216 216 216 214 209 224 234 240 243 255 253 263 261 257 261 273 291 298 320 310 300 302 295
195 200 202 203 204 205 206 207 207 209 207 207 207 206 204 205 209 208 208 211 216 219 220 223 218 224 233 241 255 261 269 267 265 264 270 274 285 294 302 300 295 296 291
194 198 198 198 199 200 200 203 205 208 203 206 207 208 210 210 212 214 214 210 220 222 222 223 227 234 238 251 260 271 272 275 263 261 256 265 268 279 284 288 283 288 287
196 194 196 195 194 192 196 200 203 205 207 203 206 205 211 211 206 211 215 218 223 233 229 226 229 236 237 249 255 267 278 275 270 264 250 269 275 276 268 273 292 289 291
190 193 192 188 184 186 193 197 200 205 204 203 204 207 210 206 212 205 208 226 238 236 236 229 233 244 250 250 257 267 266 263 268 275 276 272 262 265 275 285 273 269 278
194 190 182 176 178 185 190 190 193 190 197 206 207 207 207 211 219 222 211 219 225 223 226 232 234 239 249 261 269 270 255 266 276 280 289 278 273 281 281 271 268 257 265
188 181 174 176 178 179 179 183 181 189 201 204 202 203 214 221 227 228 232 223 225 222 228 239 232 241 247 259 262 247 263 272 280 284 288 286 281 279 279 288 283 265 269
170 170 167 168 170 171 169 170 175 179 180 179 186 202 216 229 230 231 221 224 227 241 255 223 213 243 258 249 227 235 258 276 289 286 280 280 288 325 324 321 319 312 302
156 155 156 153 155 158 158 162 158 162 166 175 192 207 224 217 225 225 222 223 224 237 233 238 257 261 231 219 232 252 266 277 277 270 281 317 327 319 318 313 309 310 312
143 134 126 127 125 133 145 159 157 159 168 184 200 210 217 220 195 190 196 200 205 208 229 236 247 224 217 229 225 241 251 250 255 280 298 300 300 322 314 315 320 323 316
110 113 115 121 121 127 132 154 157 168 194 207 204 200 190 179 179 189 183 196 202 205 202 199 196 215 216 218 222 226 233 247 257 263 300 304 321 309 318 324 322 313 300
119 114 123 125 127 130 118 112 131 148 149 137 149 175 177 173 173 177 175 173 182 185 198 212 228 251 243 211 215 223 232 242 257 263 313 319 303 313 311 310 308 306 312
139 131 139 150 148 152 148 135 126 101 127 128 126 138 158 151 162 167 168 163 171 182 228 264 266 272 178 194 210 232 247 204 325 330 304 294 310 303 306 314 311 315 316
138 149 155 161 154 176 167 161 156 150 144 112 123 133 137 148 157 166 172 182 189 220 223 251 265 202 212 184 347 360 4 4 357 353 344 326 301 309 318 311 315 322 313
129 147 161 151 149 143 173 180 166 155 143 138 139 140 146 153 159 165 170 180 248 242 212 236 349 339 5 13 42 18 356 328 312 302 300 279 311 328 320 317 325 318 314
146 158 155 134 119 139 156 192 194 144 141 150 160 163 164 161 167 176 186 210 251 285 46 38 350 344 360 347 342 332 312 288 285 270 289 332 327 331 317 323 324 314 318
138 122 97 135 164 164 175 215 172 156 164 172 169 170 181 172 180 188 190 199 210 243 193 172 354 356 306 253 251 274 283 280 284 308 341 341 335 321 317 331 315 321 330
164 178 187 195 163 158 169 195 176 182 185 179 166 176 175 184 210 201 199 213 197 196 168 136 221 304 314 336 340 303 293 292 296 9 0 330 324 319 343 318 321 329 339
156 147 75 79 118 125 202 174 92 106 123 144 162 172 178 201 227 186 195 203 173 158 157 189 227 247 289 246 268 275 272 291 37 38 335 320 315 328 328 320 325 337 330
98 97 95 119 129 115 118 118 108 112 142 151 158 171 187 210 218 218 187 192 173 182 190 205 224 239 225 216 250 258 241 235 185 179 295 311 312 325 315 321 340 324 327
105 101 94 130 180 202 123 236 206 177 177 157 179 189 203 201 210 195 180 179 193 195 200 208 207 218 211 210 240 232 222 224 246 279 286 286 290 302 330 325 337 323 340
149 139 182 194 210 226 239 221 152 174 188 184 181 182 196 201 212 206 202 202 202 206 217 220 208 202 193 200 208 237 254 273 286 278 269 251 291 317 351 319 330 330 352
Height
747 754 760 765 769 775 778 781 784 789 792 795 797 800 804 808 812 816 819 821 818 818 817 822 827 829 831 831 833 833 833 833 832 832 832 831 830 829 829 828 826 825 824
738 746 752 757 762 766 771 774 778 781 786 789 792 794 798 803 807 810 813 816 815 815 816 816 822 825 826 829 830 830 830 830 830 829 828 827 826 825 824 823 822 821 820
731 738 743 748 753 757 761 767 771 774 778 782 785 789 793 796 800 804 808 811 811 812 813 809 816 820 823 824 825 825 825 825 826 827 824 824 822 820 819 818 817 815 814
722 728 733 738 742 747 754 759 764 767 772 774 779 783 787 791 795 799 803 807 809 809 810 809 810 815 817 819 821 821 822 820 819 820 819 817 816 815 814 813 812 811 809
711 718 722 728 735 742 747 752 756 760 763 767 771 776 781 784 788 793 797 801 803 805 805 805 804 810 813 816 817 815 817 817 816 815 814 813 811 809 809 808 807 806 803
700 706 714 721 727 732 739 745 750 754 757 761 765 769 772 778 784 784 788 793 797 799 800 801 801 802 806 807 810 811 812 811 810 810 811 809 808 807 806 805 804 802 798
690 698 705 711 717 724 732 738 742 747 751 756 761 767 771 775 779 784 786 788 791 794 796 797 800 800 802 803 805 805 805 806 804 804 805 804 805 803 803 801 800 798 795
682 690 697 703 710 717 725 731 736 741 746 752 758 763 768 770 774 779 784 786 787 790 790 792 794 797 797 798 800 801 800 799 798 798 797 797 798 798 797 797 795 792 789
673 680 688 696 704 713 719 725 731 738 744 749 754 758 762 766 771 774 778 781 783 784 787 788 789 792 792 793 794 795 794 793 795 795 793 793 793 793 792 791 789 787 784
666 673 682 691 700 708 715 723 729 735 740 746 749 754 758 763 766 769 772 774 775 775 777 780 782 784 787 788 789 790 790 790 791 791 789 789 789 787 786 784 782 782 781
667 673 680 688 697 705 713 718 724 731 737 742 746 751 756 760 764 766 767 769 771 772 773 774 777 779 782 784 784 786 788 789 788 787 786 784 782 781 778 778 777 777 777
665 673 680 688 696 703 709 717 721 729 735 740 744 749 752 756 759 762 764 766 769 769 770 772 774 776 777 778 779 780 784 785 785 785 783 780 778 776 776 775 774 772 771
665 672 681 689 697 703 709 711 721 728 734 738 742 745 748 751 756 758 760 762 766 768 767 769 770 772 776 777 777 780 780 781 781 781 779 776 775 774 773 772 770 768 766
668 673 681 689 697 704 709 718 720 727 733 736 739 741 745 749 751 754 756 759 761 762 765 766 766 769 771 772 776 776 776 777 778 777 776 774 773 773 771 769 766 764 761
677 679 685 693 701 707 713 719 722 726 730 732 735 739 740 741 746 748 752 755 757 759 763 765 766 767 768 770 772 772 773 774 774 774 773 772 772 771 768 766 764 761 758
679 685 691 697 704 711 715 720 724 727 729 731 734 737 739 741 743 747 750 753 756 758 760 762 764 764 763 765 767 768 768 768 771 770 770 770 770 768 766 764 761 758 755
679 686 692 701 705 711 713 717 724 728 729 733 735 737 738 739 742 746 750 751 755 757 759 761 761 761 761 762 763 764 765 766 766 767 768 767 767 765 764 761 758 756 752
681 686 689 697 695 712 714 714 719 723 730 736 738 738 740 741 743 746 749 753 755 756 757 758 758 758 759 760 761 762 763 764 765 766 766 766 765 763 761 759 756 753 750
687 689 692 692 695 697 714 713 715 718 725 733 736 739 741 745 746 746 748 751 752 753 754 755 755 756 758 759 760 762 763 764 765 765 765 764 763 762 760 757 754 751 747
687 689 690 697 696 703 710 710 712 715 723 728 732 736 738 743 747 746 747 749 750 751 753 754 757 758 758 760 761 762 763 763 763 762 763 762 762 761 759 756 753 749 745
692 692 689 694 700 705 708 708 709 714 719 723 727 730 733 738 741 744 745 746 749 751 752 755 757 758 759 760 761 761 761 761 761 761 761 761 761 760 758 755 752 748 745
690 692 691 692 695 700 703 705 708 712 715 718 723 725 730 737 738 739 741 744 745 748 751 754 756 758 758 758 758 759 759 759 759 759 761 762 761 759 757 755 751 748 744
685 691 693 696 696 699 705 705 709 712 716 719 721 723 729 733 735 736 739 741 743 745 748 752 754 756 757 757 758 759 759 759 758 759 761 761 760 759 757 754 751 747 744
693 693 698 700 702 703 705 706 709 710 717 720 721 724 728 730 731 733 735 738 741 744 746 748 751 753 754 756 757 757 758 758 758 759 760 761 760 758 756 753 750 747 743
693 696 699 701 702 704 706 708 707 709 715 717 718 722 725 727 728 731 734 735 738 740 742 744 747 749 750 753 756 754 755 756 757 758 759 759 758 756 755 753 750 747 743
691 693 699 702 704 702 705 706 707 710 712 715 715 717 722 723 725 727 729 731 733 734 736 739 742 744 747 749 752 753 754 755 756 756 756 756 755 755 754 753 750 747 744